| time (UTC) | temp F | wind direction | speed knots | gust knots | rain 1hr in | rain 24hr in | rain mn in | humidity % | barometer mb |
| 20260507114144 | 43 | 190 | 0.9 | 5.2 | 0.00 | 0.00 | 0.00 | 78 | 1012.9 |
| 20260507113639 | 42 | 236 | 0.9 | 4.3 | 0.00 | 0.00 | 0.00 | 79 | 1012.9 |
| 20260507113132 | 42 | 143 | 0.9 | 4.3 | 0.00 | 0.00 | 0.00 | 78 | 1012.8 |
| 20260507112625 | 42 | 191 | 0.9 | 6.1 | 0.00 | 0.00 | 0.00 | 79 | 1012.8 |
| 20260507111614 | 42 | 221 | 0.9 | 3.5 | 0.00 | 0.00 | 0.00 | 79 | 1012.9 |
| 20260507110600 | 42 | 204 | 0.9 | 2.6 | 0.00 | 0.00 | 0.00 | 79 | 1012.9 |
| 20260507110055 | 42 | 199 | 0.0 | 2.6 | 0.00 | 0.00 | 0.00 | 79 | 1012.9 |
| 20260507105044 | 42 | 184 | 0.9 | 4.3 | 0.00 | 0.00 | 0.00 | 79 | 1012.8 |
| 20260507104537 | 42 | 186 | 0.0 | 2.6 | 0.00 | 0.00 | 0.00 | 79 | 1012.8 |
| 20260507103526 | 42 | 207 | 0.0 | 1.7 | 0.00 | 0.00 | 0.00 | 79 | 1012.9 |
| 20260507103019 | 42 | 207 | 0.0 | 2.6 | 0.00 | 0.00 | 0.00 | 78 | 1012.9 |
| 20260507102514 | 42 | 207 | 0.0 | 2.6 | 0.00 | 0.00 | 0.00 | 78 | 1012.9 |
| 20260507102008 | 42 | 194 | 0.0 | 0.9 | 0.00 | 0.00 | 0.00 | 78 | 1012.8 |
| 20260507101501 | 42 | 192 | 0.0 | 1.7 | 0.00 | 0.00 | 0.00 | 78 | 1012.9 |
| 20260507100956 | 42 | 208 | 0.0 | 0.9 | 0.00 | 0.00 | 0.00 | 78 | 1013.1 |
| 20260507100449 | 42 | 208 | 0.0 | 1.7 | 0.00 | 0.00 | 0.00 | 78 | 1013.1 |
| 20260507095944 | 42 | 208 | 0.9 | 4.3 | 0.00 | 0.00 | 0.00 | 78 | 1013.1 |
| 20260507095438 | 42 | 208 | 0.0 | 4.3 | 0.00 | 0.00 | 0.00 | 78 | 1013.1 |
| 20260507094932 | 42 | 214 | 0.0 | 2.6 | 0.00 | 0.00 | 0.00 | 78 | 1013.2 |
| 20260507094426 | 42 | 214 | 0.0 | 2.6 | 0.00 | 0.00 | 0.00 | 78 | 1013.3 |
| 20260507093414 | 43 | 211 | 0.0 | 2.6 | 0.00 | 0.00 | 0.00 | 78 | 1013.3 |
| 20260507092907 | 43 | 210 | 0.0 | 2.6 | 0.00 | 0.00 | 0.00 | 78 | 1013.3 |
| 20260507092402 | 43 | 209 | 0.0 | 1.7 | 0.00 | 0.00 | 0.00 | 78 | 1013.4 |
| 20260507091855 | 43 | 217 | 0.0 | 0.9 | 0.00 | 0.00 | 0.00 | 77 | 1013.4 |
| 20260507090855 | 43 | 217 | 0.0 | 0.0 | 0.00 | 0.00 | 0.00 | 77 | 1013.5 |
| 20260507085855 | 44 | 217 | 0.0 | 4.3 | 0.00 | 0.00 | 0.00 | 77 | 1013.6 |
| 20260507085354 | 44 | 217 | 0.0 | 4.3 | 0.00 | 0.00 | 0.00 | 77 | 1013.6 |
| 20260507084855 | 44 | 206 | 0.0 | 3.5 | 0.00 | 0.00 | 0.00 | 77 | 1013.7 |
| 20260507083853 | 44 | 201 | 0.0 | 1.7 | 0.00 | 0.00 | 0.00 | 76 | 1013.8 |
| 20260507083353 | 44 | 201 | 0.0 | 1.7 | 0.00 | 0.00 | 0.00 | 76 | 1013.8 |
| 20260507082853 | 44 | 201 | 0.0 | 0.9 | 0.00 | 0.00 | 0.00 | 76 | 1013.8 |
| 20260507082352 | 44 | 201 | 0.0 | 0.0 | 0.00 | 0.00 | 0.00 | 76 | 1013.9 |
| 20260507081853 | 44 | 201 | 0.0 | 0.0 | 0.00 | 0.00 | 0.00 | 76 | 1013.9 |
| 20260507081352 | 44 | 201 | 0.0 | 0.0 | 0.00 | 0.00 | 0.00 | 75 | 1013.9 |
| 20260507080350 | 44 | 201 | 0.0 | 1.7 | 0.00 | 0.00 | 0.00 | 75 | 1014.1 |
| 20260507075851 | 44 | 201 | 0.0 | 0.0 | 0.00 | 0.00 | 0.00 | 74 | 1014.2 |
| 20260507075350 | 44 | 201 | 0.0 | 0.9 | 0.00 | 0.00 | 0.00 | 74 | 1014.2 |
| 20260507074847 | 44 | 201 | 0.0 | 0.9 | 0.00 | 0.00 | 0.00 | 74 | 1014.3 |
| 20260507074347 | 44 | 201 | 0.0 | 0.0 | 0.00 | 0.00 | 0.00 | 74 | 1014.3 |
| 20260507073848 | 44 | 201 | 0.0 | 0.0 | 0.00 | 0.00 | 0.00 | 73 | 1014.4 |
| 20260507073346 | 44 | 201 | 0.0 | 0.0 | 0.00 | 0.00 | 0.00 | 73 | 1014.4 |
| 20260507072847 | 45 | 201 | 0.0 | 0.0 | 0.00 | 0.00 | 0.00 | 72 | 1014.4 |
| 20260507071847 | 45 | 201 | 0.0 | 1.7 | 0.00 | 0.00 | 0.00 | 71 | 1014.6 |
| 20260507071347 | 45 | 201 | 0.0 | 1.7 | 0.00 | 0.00 | 0.00 | 70 | 1014.6 |
| 20260507070848 | 46 | 201 | 0.0 | 1.7 | 0.00 | 0.00 | 0.00 | 70 | 1014.7 |
| 20260507070348 | 46 | 146 | 0.0 | 0.0 | 0.00 | 0.00 | 0.00 | 70 | 1014.7 |
| 20260507065848 | 46 | 146 | 0.0 | 1.7 | 0.00 | 0.00 | 0.00 | 69 | 1014.8 |
| 20260507064846 | 46 | 214 | 0.0 | 2.6 | 0.00 | 0.00 | 0.00 | 68 | 1015.0 |
| 20260507064347 | 46 | 213 | 0.0 | 2.6 | 0.00 | 0.00 | 0.00 | 67 | 1015.0 |
| 20260507063848 | 47 | 186 | 0.0 | 2.6 | 0.00 | 0.00 | 0.00 | 67 | 1015.0 |
| 20260507063348 | 47 | 209 | 0.0 | 3.5 | 0.00 | 0.00 | 0.00 | 67 | 1015.0 |
| 20260507062340 | 47 | 207 | 0.9 | 4.3 | 0.00 | 0.00 | 0.00 | 65 | 1015.2 |
| 20260507061834 | 47 | 215 | 0.9 | 4.3 | 0.00 | 0.00 | 0.00 | 65 | 1015.2 |
| 20260507061328 | 47 | 222 | 0.9 | 3.5 | 0.00 | 0.00 | 0.00 | 64 | 1015.2 |
| 20260507060823 | 47 | 202 | 0.9 | 3.5 | 0.00 | 0.00 | 0.00 | 63 | 1015.2 |
| 20260507060316 | 46 | 205 | 0.9 | 3.5 | 0.00 | 0.00 | 0.00 | 62 | 1015.2 |
| 20260507055306 | 46 | 197 | 0.0 | 1.7 | 0.00 | 0.00 | 0.00 | 60 | 1015.2 |
| 20260507054759 | 46 | 197 | 0.0 | 0.9 | 0.00 | 0.00 | 0.00 | 59 | 1015.3 |
| 20260507054253 | 46 | 198 | 0.0 | 2.6 | 0.00 | 0.00 | 0.00 | 58 | 1015.2 |
| 20260507053240 | 46 | 210 | 0.0 | 2.6 | 0.00 | 0.00 | 0.00 | 56 | 1015.3 |
| 20260507052734 | 46 | 220 | 0.0 | 0.9 | 0.00 | 0.00 | 0.00 | 55 | 1015.2 |
| 20260507051216 | 47 | 220 | 0.0 | 1.7 | 0.00 | 0.00 | 0.00 | 52 | 1015.3 |
| 20260507050710 | 48 | 220 | 0.0 | 2.6 | 0.00 | 0.00 | 0.00 | 51 | 1015.3 |
| 20260507050205 | 48 | 197 | 0.0 | 2.6 | 0.00 | 0.00 | 0.00 | 51 | 1015.4 |
| 20260507045152 | 49 | 207 | 0.9 | 6.1 | 0.00 | 0.00 | 0.00 | 51 | 1015.4 |
| 20260507044647 | 49 | 220 | 0.9 | 5.2 | 0.00 | 0.00 | 0.00 | 50 | 1015.4 |
| 20260507044139 | 49 | 207 | 0.9 | 4.3 | 0.00 | 0.00 | 0.00 | 48 | 1015.5 |
| 20260507043633 | 49 | 207 | 1.7 | 5.2 | 0.00 | 0.00 | 0.00 | 50 | 1015.5 |
| 20260507043126 | 49 | 224 | 0.9 | 5.2 | 0.00 | 0.00 | 0.00 | 49 | 1015.5 |
| 20260507042621 | 48 | 192 | 0.0 | 1.7 | 0.00 | 0.00 | 0.00 | 48 | 1015.5 |
| 20260507042115 | 48 | 192 | 0.0 | 0.0 | 0.00 | 0.00 | 0.00 | 49 | 1015.6 |
| 20260507041609 | 48 | 192 | 0.0 | 0.0 | 0.00 | 0.00 | 0.00 | 48 | 1015.6 |
| 20260507041104 | 48 | 192 | 0.0 | 0.0 | 0.00 | 0.00 | 0.00 | 47 | 1015.5 |
| 20260507040050 | 49 | 192 | 0.0 | 0.0 | 0.00 | 0.00 | 0.00 | 47 | 1015.6 |
| 20260507035545 | 49 | 192 | 0.0 | 0.9 | 0.00 | 0.00 | 0.00 | 46 | 1015.6 |
| 20260507035039 | 49 | 192 | 0.0 | 0.9 | 0.00 | 0.00 | 0.00 | 46 | 1015.8 |
| 20260507034534 | 49 | 192 | 0.0 | 0.0 | 0.00 | 0.00 | 0.00 | 45 | 1015.8 |
| 20260507033521 | 49 | 192 | 0.0 | 0.0 | 0.00 | 0.00 | 0.00 | 47 | 1015.8 |
| 20260507033019 | 49 | 192 | 0.0 | 0.0 | 0.00 | 0.00 | 0.00 | 48 | 1015.9 |
| 20260507032518 | 49 | 192 | 0.0 | 0.0 | 0.00 | 0.00 | 0.00 | 48 | 1015.9 |
| 20260507032014 | 49 | 192 | 0.0 | 0.0 | 0.00 | 0.00 | 0.00 | 48 | 1015.9 |
| 20260507031516 | 49 | 192 | 0.0 | 0.0 | 0.00 | 0.00 | 0.00 | 50 | 1015.8 |
| 20260507031014 | 49 | 192 | 0.0 | 0.0 | 0.00 | 0.00 | 0.00 | 49 | 1015.8 |
| 20260507030514 | 50 | 192 | 0.0 | 0.0 | 0.00 | 0.00 | 0.00 | 47 | 1015.8 |
| 20260507030012 | 51 | 192 | 0.0 | 0.0 | 0.00 | 0.00 | 0.00 | 45 | 1015.9 |
| 20260507025510 | 51 | 192 | 0.0 | 0.0 | 0.00 | 0.00 | 0.00 | 44 | 1015.8 |
| 20260507025012 | 52 | 192 | 0.0 | 1.7 | 0.00 | 0.00 | 0.00 | 41 | 1015.8 |
| 20260507024509 | 52 | 192 | 0.0 | 1.7 | 0.00 | 0.00 | 0.00 | 39 | 1015.8 |
| 20260507024010 | 52 | 210 | 0.0 | 0.9 | 0.00 | 0.00 | 0.00 | 40 | 1015.6 |
| 20260507023510 | 53 | 210 | 0.0 | 1.7 | 0.00 | 0.00 | 0.00 | 39 | 1015.6 |
| 20260507023007 | 53 | 210 | 0.0 | 1.7 | 0.00 | 0.00 | 0.00 | 39 | 1015.6 |
| 20260507022507 | 53 | 259 | 0.0 | 0.0 | 0.00 | 0.00 | 0.00 | 38 | 1015.6 |
| 20260507022007 | 53 | 259 | 0.0 | 0.0 | 0.00 | 0.00 | 0.00 | 39 | 1015.5 |
| 20260507021504 | 53 | 259 | 0.0 | 0.0 | 0.00 | 0.00 | 0.00 | 39 | 1015.5 |
| 20260507020004 | 55 | 259 | 0.0 | 0.0 | 0.00 | 0.00 | 0.00 | 35 | 1015.4 |
| 20260507015501 | 55 | 259 | 0.0 | 0.0 | 0.00 | 0.00 | 0.00 | 35 | 1015.4 |
| 20260507014502 | 56 | 259 | 0.0 | 0.0 | 0.00 | 0.00 | 0.00 | 34 | 1015.3 |
| 20260507014002 | 56 | 259 | 0.0 | 0.0 | 0.00 | 0.00 | 0.00 | 33 | 1015.3 |
| 20260507013502 | 57 | 259 | 0.0 | 0.0 | 0.00 | 0.00 | 0.00 | 33 | 1015.3 |
| 20260507013001 | 58 | 259 | 0.0 | 1.7 | 0.00 | 0.00 | 0.00 | 31 | 1015.3 |
| 20260507012501 | 58 | 259 | 0.0 | 1.7 | 0.00 | 0.00 | 0.00 | 31 | 1015.2 |
| 20260507012001 | 58 | 259 | 0.9 | 1.7 | 0.00 | 0.00 | 0.00 | 30 | 1015.2 |
| 20260507011502 | 59 | 238 | 0.9 | 2.6 | 0.00 | 0.00 | 0.00 | 30 | 1015.2 |
| 20260507011001 | 59 | 260 | 0.9 | 2.6 | 0.00 | 0.00 | 0.00 | 30 | 1015.3 |
| 20260507004501 | 60 | 202 | 1.7 | 7.0 | 0.00 | 0.00 | 0.00 | 27 | 1015.3 |
| 20260507003501 | 61 | 263 | 2.6 | 7.0 | 0.00 | 0.00 | 0.00 | 27 | 1015.4 |
| 20260507003002 | 61 | 271 | 2.6 | 7.0 | 0.00 | 0.00 | 0.00 | 26 | 1015.4 |
| 20260507002501 | 61 | 300 | 1.7 | 7.0 | 0.00 | 0.00 | 0.00 | 26 | 1015.5 |
| 20260507001958 | 61 | 287 | 1.7 | 6.1 | 0.00 | 0.00 | 0.00 | 27 | 1015.6 |
| 20260507001459 | 61 | 292 | 2.6 | 7.8 | 0.00 | 0.00 | 0.00 | 27 | 1015.5 |
| 20260507001000 | 61 | 303 | 2.6 | 7.8 | 0.00 | 0.00 | 0.00 | 27 | 1015.5 |
| 20260507000457 | 62 | 19 | 2.6 | 7.8 | 0.00 | 0.00 | 0.00 | 27 | 1015.5 |
| 20260506235956 | 62 | 275 | 2.6 | 7.8 | 0.00 | 0.00 | 0.00 | 27 | 1015.6 |
| 20260506235457 | 61 | 235 | 2.6 | 7.0 | 0.00 | 0.00 | 0.00 | 27 | 1015.5 |
| 20260506234955 | 60 | 263 | 2.6 | 6.1 | 0.00 | 0.00 | 0.00 | 28 | 1015.6 |
| 20260506234452 | 60 | 277 | 2.6 | 7.0 | 0.00 | 0.00 | 0.00 | 28 | 1015.8 |
| 20260506233953 | 60 | 274 | 2.6 | 7.8 | 0.00 | 0.00 | 0.00 | 28 | 1015.8 |
| 20260506233453 | 61 | 252 | 2.6 | 7.8 | 0.00 | 0.00 | 0.00 | 27 | 1015.8 |
| 20260506232952 | 61 | 258 | 3.5 | 8.7 | 0.00 | 0.00 | 0.00 | 27 | 1015.9 |
| 20260506232452 | 61 | 209 | 3.5 | 10.4 | 0.00 | 0.00 | 0.00 | 27 | 1015.9 |
| 20260506231956 | 62 | 254 | 3.5 | 8.7 | 0.00 | 0.00 | 0.00 | 26 | 1015.9 |
| 20260506231450 | 62 | 267 | 3.5 | 8.7 | 0.00 | 0.00 | 0.00 | 27 | 1015.9 |
| 20260506230943 | 62 | 298 | 4.3 | 11.3 | 0.00 | 0.00 | 0.00 | 27 | 1016.0 |
| 20260506230437 | 61 | 244 | 5.2 | 11.3 | 0.00 | 0.00 | 0.00 | 26 | 1016.0 |
| 20260506225931 | 62 | 276 | 4.3 | 10.4 | 0.00 | 0.00 | 0.00 | 26 | 1016.0 |
| 20260506225425 | 62 | 252 | 4.3 | 15.6 | 0.00 | 0.00 | 0.00 | 27 | 1016.0 |
| 20260506224919 | 62 | 285 | 5.2 | 15.6 | 0.00 | 0.00 | 0.00 | 28 | 1016.1 |
| 20260506223906 | 60 | 279 | 2.6 | 7.0 | 0.00 | 0.00 | 0.00 | 28 | 1016.0 |
| 20260506223402 | 61 | 165 | 2.6 | 9.6 | 0.00 | 0.00 | 0.00 | 27 | 1016.1 |
| 20260506222855 | 61 | 279 | 3.5 | 9.6 | 0.00 | 0.00 | 0.00 | 28 | 1016.2 |
| 20260506222352 | 61 | 226 | 5.2 | 10.4 | 0.00 | 0.00 | 0.00 | 27 | 1016.2 |
| 20260506221843 | 61 | 225 | 4.3 | 10.4 | 0.00 | 0.00 | 0.00 | 27 | 1016.2 |
| 20260506221337 | 61 | 257 | 3.5 | 9.6 | 0.00 | 0.00 | 0.00 | 29 | 1016.2 |
| 20260506220832 | 61 | 268 | 3.5 | 10.4 | 0.00 | 0.00 | 0.00 | 27 | 1016.3 |
| 20260506220326 | 61 | 261 | 5.2 | 16.5 | 0.00 | 0.00 | 0.00 | 27 | 1016.4 |
| 20260506215313 | 60 | 288 | 1.7 | 7.0 | 0.00 | 0.00 | 0.00 | 28 | 1016.5 |
| 20260506214807 | 60 | 279 | 1.7 | 6.1 | 0.00 | 0.00 | 0.00 | 28 | 1016.5 |
| 20260506214300 | 60 | 279 | 1.7 | 7.0 | 0.00 | 0.00 | 0.00 | 29 | 1016.6 |
| 20260506213248 | 60 | 312 | 3.5 | 9.6 | 0.00 | 0.00 | 0.00 | 30 | 1016.6 |
| 20260506212744 | 60 | 296 | 3.5 | 9.6 | 0.00 | 0.00 | 0.00 | 28 | 1016.7 |
| 20260506212238 | 60 | 240 | 2.6 | 9.6 | 0.00 | 0.00 | 0.00 | 29 | 1016.8 |
| 20260506211731 | 60 | 315 | 3.5 | 7.8 | 0.00 | 0.00 | 0.00 | 28 | 1016.8 |
| 20260506211224 | 60 | 351 | 4.3 | 15.6 | 0.00 | 0.00 | 0.00 | 28 | 1016.8 |
| 20260506210718 | 60 | 38 | 3.5 | 15.6 | 0.00 | 0.00 | 0.00 | 29 | 1016.9 |
| 20260506210214 | 59 | 290 | 2.6 | 7.8 | 0.00 | 0.00 | 0.00 | 28 | 1016.9 |
| 20260506205707 | 59 | 287 | 3.5 | 11.3 | 0.00 | 0.00 | 0.00 | 28 | 1017.1 |
| 20260506205200 | 59 | 294 | 3.5 | 11.3 | 0.00 | 0.00 | 0.00 | 28 | 1017.2 |
| 20260506204149 | 60 | 281 | 3.5 | 10.4 | 0.00 | 0.00 | 0.00 | 27 | 1017.4 |
| 20260506203642 | 60 | 280 | 3.5 | 10.4 | 0.00 | 0.00 | 0.00 | 28 | 1017.3 |
| 20260506203136 | 60 | 28 | 2.6 | 7.8 | 0.00 | 0.00 | 0.00 | 28 | 1017.3 |
| 20260506202632 | 59 | 260 | 3.5 | 9.6 | 0.00 | 0.00 | 0.00 | 30 | 1017.4 |
| 20260506202125 | 59 | 272 | 4.3 | 9.6 | 0.00 | 0.00 | 0.00 | 28 | 1017.5 |
| 20260506201621 | 59 | 288 | 3.5 | 9.6 | 0.00 | 0.00 | 0.00 | 28 | 1017.6 |
| 20260506201114 | 59 | 301 | 2.6 | 9.6 | 0.00 | 0.00 | 0.00 | 29 | 1017.6 |
| 20260506195556 | 60 | 248 | 4.3 | 13.9 | 0.00 | 0.00 | 0.00 | 27 | 1017.8 |
| 20260506195049 | 60 | 9 | 3.5 | 10.4 | 0.00 | 0.00 | 0.00 | 27 | 1017.8 |
| 20260506194543 | 60 | 242 | 2.6 | 11.3 | 0.00 | 0.00 | 0.00 | 28 | 1017.7 |
| 20260506193531 | 59 | 35 | 3.5 | 12.2 | 0.00 | 0.00 | 0.00 | 30 | 1017.7 |
| 20260506193026 | 59 | 257 | 3.5 | 12.2 | 0.00 | 0.00 | 0.00 | 29 | 1017.9 |
| 20260506192518 | 59 | 265 | 4.3 | 11.3 | 0.00 | 0.00 | 0.00 | 28 | 1017.9 |
| 20260506191001 | 59 | 302 | 5.2 | 14.8 | 0.00 | 0.00 | 0.00 | 30 | 1017.9 |
| 20260506190456 | 58 | 275 | 6.1 | 14.8 | 0.00 | 0.00 | 0.00 | 28 | 1017.8 |
| 20260506185949 | 58 | 243 | 4.3 | 11.3 | 0.00 | 0.00 | 0.00 | 28 | 1017.9 |
| 20260506185444 | 59 | 275 | 4.3 | 12.2 | 0.00 | 0.00 | 0.00 | 28 | 1017.9 |
| 20260506184936 | 59 | 281 | 4.3 | 13.0 | 0.00 | 0.00 | 0.00 | 28 | 1018.2 |
| 20260506184432 | 59 | 26 | 3.5 | 13.0 | 0.00 | 0.00 | 0.00 | 28 | 1018.1 |
| 20260506183926 | 60 | 290 | 4.3 | 11.3 | 0.00 | 0.00 | 0.00 | 29 | 1018.1 |
| 20260506183419 | 60 | 291 | 5.2 | 18.2 | 0.00 | 0.00 | 0.00 | 29 | 1018.1 |
| 20260506182914 | 59 | 320 | 5.2 | 18.2 | 0.00 | 0.00 | 0.00 | 30 | 1018.0 |
| 20260506182408 | 58 | 288 | 5.2 | 14.8 | 0.00 | 0.00 | 0.00 | 29 | 1018.1 |
| 20260506181902 | 58 | 257 | 3.5 | 14.8 | 0.00 | 0.00 | 0.00 | 28 | 1018.2 |
| 20260506181356 | 58 | 304 | 3.5 | 13.0 | 0.00 | 0.00 | 0.00 | 28 | 1018.4 |
| 20260506180850 | 58 | 311 | 2.6 | 13.0 | 0.00 | 0.00 | 0.00 | 30 | 1018.5 |
| 20260506180342 | 58 | 100 | 2.6 | 8.7 | 0.00 | 0.00 | 0.00 | 29 | 1018.4 |
| 20260506175837 | 58 | 27 | 3.5 | 9.6 | 0.00 | 0.00 | 0.00 | 30 | 1018.6 |
| 20260506174827 | 58 | 248 | 3.5 | 13.0 | 0.00 | 0.00 | 0.00 | 30 | 1018.7 |
| 20260506174325 | 58 | 264 | 3.5 | 9.6 | 0.00 | 0.00 | 0.00 | 29 | 1018.8 |
| 20260506173826 | 57 | 282 | 4.3 | 11.3 | 0.00 | 0.00 | 0.00 | 32 | 1018.8 |
| 20260506173327 | 57 | 285 | 3.5 | 11.3 | 0.00 | 0.00 | 0.00 | 30 | 1018.9 |
| 20260506172823 | 57 | 275 | 2.6 | 11.3 | 0.00 | 0.00 | 0.00 | 31 | 1018.9 |
| 20260506172324 | 57 | 252 | 4.3 | 11.3 | 0.00 | 0.00 | 0.00 | 30 | 1019.0 |
| 20260506171322 | 56 | 332 | 3.5 | 11.3 | 0.00 | 0.00 | 0.00 | 31 | 1019.0 |
| 20260506170822 | 56 | 288 | 2.6 | 11.3 | 0.00 | 0.00 | 0.00 | 31 | 1019.1 |
| 20260506165821 | 56 | 290 | 2.6 | 7.8 | 0.00 | 0.00 | 0.00 | 33 | 1019.3 |
| 20260506165323 | 55 | 100 | 2.6 | 7.8 | 0.00 | 0.00 | 0.00 | 31 | 1019.3 |
| 20260506164822 | 54 | 278 | 3.5 | 10.4 | 0.00 | 0.00 | 0.00 | 32 | 1019.3 |
| 20260506163822 | 55 | 34 | 2.6 | 7.8 | 0.00 | 0.00 | 0.00 | 33 | 1019.4 |
| 20260506163321 | 55 | 306 | 2.6 | 7.8 | 0.00 | 0.00 | 0.00 | 35 | 1019.3 |
| 20260506162822 | 55 | 306 | 3.5 | 8.7 | 0.00 | 0.00 | 0.00 | 34 | 1019.3 |
| 20260506162323 | 55 | 266 | 3.5 | 9.6 | 0.00 | 0.00 | 0.00 | 33 | 1019.3 |
| 20260506161821 | 55 | 281 | 3.5 | 9.6 | 0.00 | 0.00 | 0.00 | 34 | 1019.3 |
| 20260506161322 | 54 | 44 | 3.5 | 10.4 | 0.00 | 0.00 | 0.00 | 34 | 1019.3 |
| 20260506160321 | 54 | 246 | 3.5 | 8.7 | 0.00 | 0.00 | 0.00 | 35 | 1019.4 |
| 20260506155822 | 53 | 36 | 3.5 | 8.7 | 0.00 | 0.00 | 0.00 | 33 | 1019.4 |
| 20260506154823 | 53 | 292 | 0.9 | 9.6 | 0.00 | 0.00 | 0.00 | 36 | 1019.4 |
| 20260506154322 | 53 | 314 | 1.7 | 8.7 | 0.00 | 0.00 | 0.00 | 35 | 1019.4 |
| 20260506153822 | 53 | 251 | 2.6 | 9.6 | 0.00 | 0.00 | 0.00 | 37 | 1019.3 |
| 20260506153322 | 52 | 276 | 2.6 | 9.6 | 0.00 | 0.00 | 0.00 | 36 | 1019.3 |
| 20260506152822 | 52 | 281 | 1.7 | 6.1 | 0.00 | 0.00 | 0.00 | 38 | 1019.4 |
| 20260506152320 | 52 | 263 | 1.7 | 5.2 | 0.00 | 0.00 | 0.00 | 38 | 1019.3 |
| 20260506151819 | 52 | 288 | 1.7 | 5.2 | 0.00 | 0.00 | 0.00 | 37 | 1019.3 |
| 20260506151315 | 52 | 14 | 0.9 | 3.5 | 0.00 | 0.00 | 0.00 | 38 | 1019.4 |
| 20260506150814 | 51 | 28 | 0.9 | 3.5 | 0.00 | 0.00 | 0.00 | 39 | 1019.3 |
| 20260506150313 | 51 | 281 | 0.9 | 2.6 | 0.00 | 0.00 | 0.00 | 40 | 1019.3 |
| 20260506145316 | 51 | 53 | 0.9 | 3.5 | 0.00 | 0.00 | 0.00 | 41 | 1019.2 |
| 20260506144811 | 50 | 284 | 0.9 | 3.5 | 0.00 | 0.00 | 0.00 | 39 | 1019.2 |
| 20260506144304 | 50 | 55 | 0.0 | 1.7 | 0.00 | 0.00 | 0.00 | 41 | 1019.2 |
| 20260506143252 | 50 | 304 | 0.0 | 1.7 | 0.00 | 0.00 | 0.00 | 43 | 1019.3 |
| 20260506142746 | 49 | 304 | 0.0 | 1.7 | 0.00 | 0.00 | 0.00 | 42 | 1019.3 |
| 20260506141735 | 48 | 263 | 0.9 | 1.7 | 0.00 | 0.00 | 0.00 | 45 | 1019.2 |
| 20260506141228 | 48 | 259 | 0.9 | 2.6 | 0.00 | 0.00 | 0.00 | 44 | 1019.2 |
| 20260506140722 | 48 | 287 | 0.9 | 2.6 | 0.00 | 0.00 | 0.00 | 45 | 1019.2 |
| 20260506140216 | 48 | 319 | 0.0 | 1.7 | 0.00 | 0.00 | 0.00 | 47 | 1019.2 |
| 20260506135709 | 48 | 319 | 0.0 | 2.6 | 0.00 | 0.00 | 0.00 | 46 | 1019.1 |
| 20260506135205 | 47 | 320 | 0.0 | 2.6 | 0.00 | 0.00 | 0.00 | 48 | 1019.1 |
| 20260506134658 | 47 | 334 | 0.0 | 1.7 | 0.00 | 0.00 | 0.00 | 49 | 1019.1 |
| 20260506134153 | 46 | 340 | 0.0 | 1.7 | 0.00 | 0.00 | 0.00 | 50 | 1019.0 |
| 20260506133647 | 46 | 276 | 0.0 | 2.6 | 0.00 | 0.00 | 0.00 | 50 | 1019.0 |
| 20260506133139 | 46 | 0 | 0.0 | 2.6 | 0.00 | 0.00 | 0.00 | 50 | 1018.9 |
| 20260506132633 | 45 | 309 | 0.0 | 1.7 | 0.00 | 0.00 | 0.00 | 52 | 1018.9 |
| 20260506132129 | 45 | 346 | 0.9 | 2.6 | 0.00 | 0.00 | 0.00 | 52 | 1018.7 |
| 20260506131622 | 45 | 275 | 0.9 | 3.5 | 0.00 | 0.00 | 0.00 | 53 | 1018.7 |
| 20260506131115 | 45 | 326 | 1.7 | 3.5 | 0.00 | 0.00 | 0.00 | 53 | 1018.7 |
| 20260506130103 | 44 | 292 | 0.9 | 2.6 | 0.00 | 0.00 | 0.00 | 54 | 1018.6 |
| 20260506125559 | 44 | 22 | 0.9 | 3.5 | 0.00 | 0.00 | 0.00 | 55 | 1018.5 |
| 20260506125052 | 44 | 304 | 0.9 | 3.5 | 0.00 | 0.00 | 0.00 | 56 | 1018.4 |
| 20260506124548 | 44 | 249 | 0.0 | 1.7 | 0.00 | 0.00 | 0.00 | 56 | 1018.4 |
| 20260506124040 | 43 | 286 | 0.9 | 3.5 | 0.00 | 0.00 | 0.00 | 57 | 1018.2 |
| 20260506123534 | 43 | 12 | 0.9 | 3.5 | 0.00 | 0.00 | 0.00 | 59 | 1018.1 |
| 20260506123029 | 42 | 28 | 0.0 | 1.7 | 0.00 | 0.00 | 0.00 | 61 | 1018.1 |
| 20260506122017 | 42 | 28 | 0.0 | 0.9 | 0.00 | 0.00 | 0.00 | 64 | 1017.8 |
| 20260506121510 | 42 | 28 | 0.0 | 0.0 | 0.00 | 0.00 | 0.00 | 65 | 1017.8 |
| 20260506120458 | 42 | 28 | 0.0 | 0.9 | 0.00 | 0.00 | 0.00 | 66 | 1017.6 |
| 20260506115952 | 41 | 28 | 0.0 | 0.9 | 0.00 | 0.00 | 0.00 | 66 | 1017.5 |
| 20260506115447 | 41 | 28 | 0.0 | 0.0 | 0.00 | 0.00 | 0.00 | 68 | 1017.6 |
| 20260506114941 | 40 | 28 | 0.0 | 0.0 | 0.00 | 0.00 | 0.00 | 69 | 1017.5 |
| 20260506114433 | 40 | 28 | 0.0 | 0.0 | 0.00 | 0.00 | 0.00 | 68 | 1017.4 |